Time,TemperatureF,DewpointF,PressureIn,WindDirection,WindDirectionDegrees,WindSpeedMPH,WindSpeedGustMPH,Humidity,HourlyPrecipIn,Conditions,Clouds,dailyrainin,SoftwareType,DateUTC
2013-03-23 00:02:00,33.0,-4.0,29.90,SW,217,2.0,6.0,20,0.00,,,0.00,,2013-03-23 07:02:00,
2013-03-23 00:22:00,36.0,-6.0,29.88,WSW,245,4.0,9.0,16,0.00,,,0.00,,2013-03-23 07:22:00,
2013-03-23 00:32:00,43.0,-12.0,29.87,West,270,13.0,27.0,9,0.00,,,0.00,,2013-03-23 07:32:00,
2013-03-23 00:42:00,43.0,-12.0,29.87,West,270,13.0,27.0,9,0.00,,,0.00,,2013-03-23 07:42:00,
2013-03-23 00:52:00,45.0,-15.0,29.87,West,276,18.0,36.0,7,0.00,,,0.00,,2013-03-23 07:52:00,
2013-03-23 01:02:00,44.0,-16.0,29.87,West,272,13.0,28.0,7,0.00,,,0.00,,2013-03-23 08:02:00,
2013-03-23 01:22:00,44.0,-16.0,29.88,West,270,15.0,27.0,7,0.00,,,0.00,,2013-03-23 08:22:00,
2013-03-23 01:52:00,43.0,-14.0,29.88,West,272,13.0,25.0,8,0.00,,,0.00,,2013-03-23 08:52:00,
2013-03-23 02:02:00,43.0,-12.0,29.88,West,276,11.0,28.0,9,0.00,,,0.00,,2013-03-23 09:02:00,
2013-03-23 02:12:00,43.0,-12.0,29.88,West,276,11.0,28.0,9,0.00,,,0.00,,2013-03-23 09:12:00,
2013-03-23 02:21:00,43.0,-12.0,29.90,West,275,15.0,30.0,9,0.00,,,0.00,,2013-03-23 09:21:00,
2013-03-23 02:32:00,43.0,-12.0,29.90,West,275,15.0,30.0,9,0.00,,,0.00,,2013-03-23 09:32:00,
2013-03-23 02:43:00,43.0,-12.0,29.90,West,275,15.0,30.0,9,0.00,,,0.00,,2013-03-23 09:43:00,
2013-03-23 02:53:00,43.0,-14.0,29.90,WNW,288,11.0,30.0,8,0.00,,,0.00,,2013-03-23 09:53:00,
2013-03-23 03:02:00,43.0,-14.0,29.90,West,272,10.0,30.0,8,0.00,,,0.00,,2013-03-23 10:02:00,
2013-03-23 03:22:00,42.0,-13.0,29.90,West,270,13.0,26.0,9,0.00,,,0.00,,2013-03-23 10:22:00,
2013-03-23 03:42:00,42.0,-13.0,29.90,West,270,13.0,26.0,9,0.00,,,0.00,,2013-03-23 10:42:00,
2013-03-23 03:52:00,41.0,-16.0,29.91,WNW,297,15.0,25.0,8,0.00,,,0.00,,2013-03-23 10:52:00,
2013-03-23 04:02:00,41.0,-16.0,29.91,WNW,297,15.0,25.0,8,0.00,,,0.00,,2013-03-23 11:02:00,
2013-03-23 04:21:00,41.0,-16.0,29.90,WNW,289,11.0,23.0,8,0.00,,,0.00,,2013-03-23 11:21:00,
2013-03-23 04:32:00,41.0,-18.0,29.90,WNW,282,13.0,25.0,7,0.00,,,0.00,,2013-03-23 11:32:00,
2013-03-23 04:52:00,40.0,-17.0,29.91,WNW,301,13.0,27.0,8,0.00,,,0.00,,2013-03-23 11:52:00,
2013-03-23 05:01:00,40.0,-17.0,29.91,NW,306,10.0,23.0,8,0.00,,,0.00,,2013-03-23 12:01:00,
2013-03-23 05:53:00,34.0,-6.0,29.93,ESE,115,6.0,9.0,17,0.00,,,0.00,,2013-03-23 12:53:00,
2013-03-23 06:02:00,32.0,-6.0,29.96,SSE,149,7.0,13.0,19,0.00,,,0.00,,2013-03-23 13:02:00,
2013-03-23 06:11:00,32.0,-6.0,29.96,SSE,149,7.0,13.0,19,0.00,,,0.00,,2013-03-23 13:11:00,
2013-03-23 06:21:00,32.0,-6.0,29.96,SSE,149,7.0,13.0,19,0.00,,,0.00,,2013-03-23 13:21:00,
2013-03-23 06:32:00,31.0,-3.0,29.96,ESE,122,9.0,15.0,22,0.00,,,0.00,,2013-03-23 13:32:00,
2013-03-23 06:42:00,31.0,-3.0,29.96,ESE,122,9.0,15.0,22,0.00,,,0.00,,2013-03-23 13:42:00,
2013-03-23 06:53:00,31.0,-3.0,29.96,SE,141,8.0,11.0,22,0.00,,,0.00,,2013-03-23 13:53:00,
2013-03-23 07:11:00,29.0,-3.0,29.96,South,172,1.0,11.0,24,0.00,,,0.00,,2013-03-23 14:11:00,
2013-03-23 07:21:00,31.0,-2.0,29.97,SSE,151,10.0,14.0,24,0.00,,,0.00,,2013-03-23 14:21:00,
2013-03-23 07:31:00,32.0,-2.0,29.98,SE,127,10.0,14.0,23,0.00,,,0.00,,2013-03-23 14:31:00,
2013-03-23 07:42:00,32.0,-2.0,29.98,SE,127,10.0,14.0,23,0.00,,,0.00,,2013-03-23 14:42:00,
2013-03-23 07:52:00,32.0,-2.0,29.98,ESE,119,11.0,15.0,23,0.00,,,0.00,,2013-03-23 14:52:00,
2013-03-23 08:02:00,32.0,0.0,29.99,SE,144,10.0,16.0,25,0.00,,,0.00,,2013-03-23 15:02:00,
2013-03-23 08:11:00,32.0,0.0,29.99,SE,144,10.0,16.0,25,0.00,,,0.00,,2013-03-23 15:11:00,
2013-03-23 08:22:00,32.0,0.0,29.99,SE,144,10.0,16.0,25,0.00,,,0.00,,2013-03-23 15:22:00,
2013-03-23 08:32:00,32.0,3.0,29.99,SSE,151,11.0,15.0,29,0.00,,,0.00,,2013-03-23 15:32:00,
2013-03-23 08:44:00,32.0,3.0,29.99,SSE,151,11.0,15.0,29,0.00,,,0.00,,2013-03-23 15:44:00,
2013-03-23 08:53:00,34.0,2.0,29.98,SSE,159,16.0,21.0,25,0.00,,,0.00,,2013-03-23 15:53:00,
2013-03-23 09:03:00,35.0,1.0,29.99,SSE,157,17.0,22.0,23,0.00,,,0.00,,2013-03-23 16:03:00,
2013-03-23 09:12:00,35.0,1.0,29.99,SSE,157,17.0,22.0,23,0.00,,,0.00,,2013-03-23 16:12:00,
2013-03-23 09:22:00,37.0,-3.0,29.98,SE,137,16.0,26.0,18,0.00,,,0.00,,2013-03-23 16:22:00,
2013-03-23 09:32:00,37.0,-3.0,29.98,SE,137,16.0,26.0,18,0.00,,,0.00,,2013-03-23 16:32:00,
2013-03-23 09:42:00,37.0,-3.0,29.98,SE,137,16.0,26.0,18,0.00,,,0.00,,2013-03-23 16:42:00,
2013-03-23 09:53:00,37.0,-3.0,29.98,SE,137,16.0,26.0,18,0.00,,,0.00,,2013-03-23 16:53:00,
2013-03-23 10:02:00,41.0,-4.0,30.00,ENE,64,9.0,22.0,14,0.00,,,0.00,,2013-03-23 17:02:00,
2013-03-23 10:12:00,41.0,-4.0,30.01,NE,51,20.0,27.0,14,0.00,,,0.00,,2013-03-23 17:12:00,
2013-03-23 10:22:00,41.0,-4.0,30.01,NE,51,20.0,27.0,14,0.00,,,0.00,,2013-03-23 17:22:00,
2013-03-23 10:32:00,38.0,-4.0,30.02,NE,36,19.0,34.0,16,0.00,,,0.00,,2013-03-23 17:32:00,
2013-03-23 10:40:00,39.0,-5.0,30.03,NE,46,19.0,28.0,15,0.00,,,0.00,,2013-03-23 17:40:00,
2013-03-23 10:42:00,38.0,-4.0,30.02,NE,36,19.0,34.0,16,0.00,,,0.00,,2013-03-23 17:42:00,
2013-03-23 10:52:00,38.0,-4.0,30.02,NE,36,19.0,34.0,16,0.00,,,0.00,,2013-03-23 17:52:00,
2013-03-23 11:02:00,39.0,-5.0,30.03,NE,46,19.0,28.0,15,0.00,,,0.00,,2013-03-23 18:02:00,
2013-03-23 11:12:00,39.0,-5.0,30.03,NE,46,19.0,28.0,15,0.00,,,0.00,,2013-03-23 18:12:00,
2013-03-23 11:22:00,39.0,-5.0,30.03,NE,46,19.0,28.0,15,0.00,,,0.00,,2013-03-23 18:22:00,
2013-03-23 11:32:00,39.0,-5.0,30.03,NE,46,19.0,28.0,15,0.00,,,0.00,,2013-03-23 18:32:00,
2013-03-23 11:53:00,41.0,-8.0,30.04,NE,46,21.0,31.0,12,0.00,,,0.00,,2013-03-23 18:53:00,
2013-03-23 12:02:00,41.0,-8.0,30.04,NE,46,21.0,31.0,12,0.00,,,0.00,,2013-03-23 19:02:00,
2013-03-23 12:12:00,41.0,-8.0,30.04,NE,46,21.0,31.0,12,0.00,,,0.00,,2013-03-23 19:12:00,
2013-03-23 12:22:00,41.0,-8.0,30.04,NE,46,21.0,31.0,12,0.00,,,0.00,,2013-03-23 19:22:00,
2013-03-23 12:53:00,39.0,3.0,30.04,East,92,4.0,23.0,22,0.00,,,0.00,,2013-03-23 19:53:00,
2013-03-23 13:02:00,40.0,2.0,30.05,East,92,11.0,18.0,20,0.00,,,0.00,,2013-03-23 20:02:00,
2013-03-23 13:12:00,40.0,2.0,30.05,East,92,11.0,18.0,20,0.00,,,0.00,,2013-03-23 20:12:00,
2013-03-23 13:22:00,40.0,3.0,30.04,East,93,8.0,21.0,21,0.00,,,0.00,,2013-03-23 20:22:00,
2013-03-23 13:32:00,41.0,2.0,30.05,NE,41,10.0,17.0,19,0.00,,,0.00,,2013-03-23 20:32:00,
2013-03-23 13:42:00,41.0,2.0,30.05,NE,41,10.0,17.0,19,0.00,,,0.00,,2013-03-23 20:42:00,
2013-03-23 13:52:00,41.0,2.0,30.05,NE,41,10.0,17.0,19,0.00,,,0.00,,2013-03-23 20:52:00,
2013-03-23 14:02:00,42.0,3.0,30.05,NNE,19,10.0,15.0,19,0.00,,,0.00,,2013-03-23 21:02:00,
2013-03-23 14:12:00,42.0,3.0,30.05,NNE,19,10.0,15.0,19,0.00,,,0.00,,2013-03-23 21:12:00,
2013-03-23 14:22:00,42.0,3.0,30.05,NNE,19,10.0,15.0,19,0.00,,,0.00,,2013-03-23 21:22:00,
2013-03-23 14:32:00,43.0,0.0,30.04,NE,42,5.0,14.0,16,0.00,,,0.00,,2013-03-23 21:32:00,
2013-03-23 14:42:00,43.0,0.0,30.04,NE,42,5.0,14.0,16,0.00,,,0.00,,2013-03-23 21:42:00,
2013-03-23 14:53:00,43.0,0.0,30.04,NE,42,5.0,14.0,16,0.00,,,0.00,,2013-03-23 21:53:00,
2013-03-23 15:02:00,45.0,0.0,30.01,ENE,66,5.0,10.0,15,0.00,,,0.00,,2013-03-23 22:02:00,
2013-03-23 15:12:00,45.0,0.0,30.01,ENE,66,5.0,10.0,15,0.00,,,0.00,,2013-03-23 22:12:00,
2013-03-23 15:23:00,45.0,0.0,30.01,ENE,75,6.0,12.0,15,0.00,,,0.00,,2013-03-23 22:23:00,
2013-03-23 15:32:00,45.0,2.0,30.01,ENE,61,9.0,15.0,16,0.00,,,0.00,,2013-03-23 22:32:00,
2013-03-23 15:42:00,45.0,2.0,30.01,ENE,61,9.0,15.0,16,0.00,,,0.00,,2013-03-23 22:42:00,
2013-03-23 15:53:00,45.0,2.0,30.02,East,79,3.0,11.0,16,0.00,,,0.00,,2013-03-23 22:53:00,
2013-03-23 16:01:00,45.0,2.0,30.02,East,79,3.0,11.0,16,0.00,,,0.00,,2013-03-23 23:01:00,
2013-03-23 16:12:00,45.0,2.0,30.02,East,79,3.0,11.0,16,0.00,,,0.00,,2013-03-23 23:12:00,
2013-03-23 16:22:00,44.0,2.0,30.03,East,88,8.0,13.0,17,0.00,,,0.00,,2013-03-23 23:22:00,
2013-03-23 16:32:00,43.0,1.0,30.03,North,2,5.0,11.0,17,0.00,,,0.00,,2013-03-23 23:32:00,
2013-03-23 16:43:00,43.0,1.0,30.03,North,2,5.0,11.0,17,0.00,,,0.00,,2013-03-23 23:43:00,
2013-03-23 16:52:00,44.0,-1.0,30.03,NNE,33,6.0,9.0,15,0.00,,,0.00,,2013-03-23 23:52:00,
2013-03-23 17:01:00,44.0,2.0,30.04,SE,137,5.0,11.0,17,0.00,,,0.00,,2013-03-24 00:01:00,
2013-03-23 17:11:00,44.0,2.0,30.04,SE,137,5.0,11.0,17,0.00,,,0.00,,2013-03-24 00:11:00,
2013-03-23 17:22:00,44.0,2.0,30.04,SE,137,5.0,11.0,17,0.00,,,0.00,,2013-03-24 00:22:00,
2013-03-23 17:32:00,43.0,1.0,30.05,ESE,108,6.0,10.0,17,0.00,,,0.00,,2013-03-24 00:32:00,
2013-03-23 17:41:00,43.0,1.0,30.05,ESE,108,6.0,10.0,17,0.00,,,0.00,,2013-03-24 00:41:00,
2013-03-23 17:52:00,42.0,0.0,30.06,SE,142,11.0,15.0,17,0.00,,,0.00,,2013-03-24 00:52:00,
2013-03-23 18:02:00,40.0,0.0,30.05,ESE,105,10.0,17.0,18,0.00,,,0.00,,2013-03-24 01:02:00,
2013-03-23 18:12:00,40.0,0.0,30.05,ESE,105,10.0,17.0,18,0.00,,,0.00,,2013-03-24 01:12:00,
2013-03-23 18:22:00,40.0,0.0,30.06,ENE,70,5.0,13.0,18,0.00,,,0.00,,2013-03-24 01:22:00,
2013-03-23 18:32:00,39.0,0.0,30.06,ENE,70,6.0,9.0,19,0.00,,,0.00,,2013-03-24 01:32:00,
2013-03-23 18:41:00,39.0,0.0,30.06,ENE,70,6.0,9.0,19,0.00,,,0.00,,2013-03-24 01:41:00,
2013-03-23 18:52:00,39.0,0.0,30.07,East,91,4.0,9.0,19,0.00,,,0.00,,2013-03-24 01:52:00,
2013-03-23 19:02:00,37.0,1.0,30.07,SE,136,2.0,6.0,21,0.00,,,0.00,,2013-03-24 02:02:00,
2013-03-23 19:11:00,37.0,1.0,30.07,SE,136,2.0,6.0,21,0.00,,,0.00,,2013-03-24 02:11:00,
2013-03-23 19:21:00,34.0,1.0,30.08,North,0,0.0,5.0,24,0.00,,,0.00,,2013-03-24 02:21:00,
2013-03-23 19:32:00,32.0,1.0,30.08,WNW,289,1.0,3.0,26,0.00,,,0.00,,2013-03-24 02:32:00,
2013-03-23 19:42:00,32.0,1.0,30.08,WNW,289,1.0,3.0,26,0.00,,,0.00,,2013-03-24 02:42:00,
2013-03-23 19:52:00,31.0,2.0,30.09,North,0,0.0,4.0,28,0.00,,,0.00,,2013-03-24 02:52:00,
2013-03-23 20:01:00,29.0,4.0,30.10,WNW,299,2.0,4.0,34,0.00,,,0.00,,2013-03-24 03:01:00,
2013-03-23 20:11:00,29.0,4.0,30.10,WNW,299,2.0,4.0,34,0.00,,,0.00,,2013-03-24 03:11:00,
2013-03-23 20:21:00,27.0,2.0,30.08,North,0,0.0,2.0,34,0.00,,,0.00,,2013-03-24 03:21:00,
2013-03-23 20:33:00,26.0,3.0,30.09,North,0,0.0,2.0,37,0.00,,,0.00,,2013-03-24 03:33:00,
2013-03-23 20:42:00,26.0,3.0,30.09,North,0,0.0,2.0,37,0.00,,,0.00,,2013-03-24 03:42:00,
2013-03-23 20:53:00,26.0,3.0,30.09,North,0,0.0,3.0,37,0.00,,,0.00,,2013-03-24 03:53:00,
2013-03-23 21:02:00,24.0,2.0,30.10,North,0,0.0,2.0,37,0.00,,,0.00,,2013-03-24 04:02:00,
2013-03-23 21:12:00,24.0,2.0,30.10,North,0,0.0,2.0,37,0.00,,,0.00,,2013-03-24 04:12:00,
2013-03-23 21:22:00,24.0,2.0,30.10,North,0,0.0,2.0,37,0.00,,,0.00,,2013-03-24 04:22:00,
2013-03-23 21:32:00,23.0,3.0,30.11,North,0,0.0,1.0,42,0.00,,,0.00,,2013-03-24 04:32:00,
2013-03-23 21:42:00,23.0,3.0,30.11,North,0,0.0,1.0,42,0.00,,,0.00,,2013-03-24 04:42:00,
2013-03-23 21:53:00,23.0,3.0,30.11,North,0,0.0,1.0,42,0.00,,,0.00,,2013-03-24 04:53:00,
2013-03-23 22:02:00,21.0,4.0,30.11,North,0,0.0,1.0,47,0.00,,,0.00,,2013-03-24 05:02:00,
2013-03-23 22:12:00,21.0,4.0,30.11,North,0,0.0,1.0,47,0.00,,,0.00,,2013-03-24 05:12:00,
2013-03-23 22:22:00,22.0,4.0,30.10,North,0,0.0,1.0,46,0.00,,,0.00,,2013-03-24 05:22:00,
2013-03-23 22:41:00,21.0,3.0,30.10,North,0,0.0,1.0,45,0.00,,,0.00,,2013-03-24 05:41:00,
2013-03-23 22:51:00,21.0,4.0,30.10,ESE,114,1.0,3.0,46,0.00,,,0.00,,2013-03-24 05:51:00,
2013-03-23 23:02:00,19.0,4.0,30.10,NE,40,3.0,7.0,52,0.00,,,0.00,,2013-03-24 06:02:00,
2013-03-23 23:11:00,19.0,4.0,30.10,NE,40,3.0,7.0,52,0.00,,,0.00,,2013-03-24 06:11:00,
2013-03-23 23:21:00,18.0,4.0,30.11,NW,306,6.0,8.0,54,0.00,,,0.00,,2013-03-24 06:21:00,
2013-03-23 23:32:00,20.0,3.0,30.11,North,0,0.0,9.0,47,0.00,,,0.00,,2013-03-24 06:32:00,
2013-03-23 23:42:00,20.0,3.0,30.11,North,0,0.0,9.0,47,0.00,,,0.00,,2013-03-24 06:42:00,
2013-03-23 23:51:00,19.0,3.0,30.09,ENE,62,2.0,5.0,49,0.00,,,0.00,,2013-03-24 06:51:00,